Total_Precipitation_Accumulation
0.04 0.10 0.27 0.55 1.19 1.52 1.30 0.72 0.54 0.42 0.43 0.44 0.45 0.44 0.47 0.54 0.86 1.22 0.78 0.42 0.15 0.05 0.06 0.22 0.37 0.31 0.26 0.24 0.25 0.27 0.28 0.26 0.23 0.20 0.17 0.16 0.15 0.16 0.19 0.22 0.24 0.27 0.32 0.36 0.39 0.41 0.38 0.38 0.45
0.07 0.13 0.34 0.82 1.49 1.50 1.12 0.61 0.46 0.36 0.40 0.40 0.36 0.40 0.53 0.59 0.46 0.46 0.55 0.42 0.15 0.06 0.04 0.08 0.25 0.29 0.26 0.25 0.26 0.27 0.26 0.24 0.22 0.20 0.17 0.17 0.20 0.22 0.25 0.25 0.27 0.32 0.34 0.34 0.35 0.32 0.37 0.43 0.50
0.09 0.16 0.36 0.82 0.99 0.96 0.77 0.50 0.42 0.33 0.43 0.59 0.50 0.42 0.53 0.69 0.52 0.43 0.42 0.25 0.14 0.10 0.07 0.12 0.22 0.23 0.24 0.25 0.27 0.26 0.25 0.23 0.21 0.20 0.19 0.21 0.24 0.28 0.32 0.32 0.32 0.35 0.35 0.34 0.35 0.34 0.41 0.41 0.49
0.09 0.22 0.41 0.53 0.42 0.38 0.40 0.40 0.41 0.44 0.64 0.79 0.65 0.53 0.58 0.55 0.51 0.43 0.34 0.23 0.17 0.13 0.12 0.17 0.23 0.24 0.25 0.27 0.27 0.26 0.24 0.22 0.20 0.21 0.22 0.25 0.29 0.34 0.35 0.36 0.37 0.36 0.38 0.42 0.44 0.40 0.41 0.41 0.44
0.10 0.28 0.54 0.40 0.23 0.24 0.24 0.29 0.45 0.51 0.76 0.84 0.61 0.64 0.72 0.64 0.59 0.55 0.41 0.35 0.32 0.35 0.32 0.30 0.32 0.29 0.28 0.28 0.29 0.28 0.27 0.25 0.24 0.22 0.24 0.28 0.32 0.38 0.40 0.41 0.42 0.38 0.38 0.43 0.47 0.44 0.44 0.54 0.59
0.09 0.22 0.36 0.27 0.16 0.14 0.17 0.25 0.39 0.51 0.74 0.80 0.65 0.82 0.88 0.88 0.83 0.77 0.72 0.76 0.70 0.74 0.66 0.58 0.55 0.45 0.39 0.35 0.35 0.34 0.34 0.30 0.30 0.29 0.29 0.31 0.34 0.37 0.41 0.43 0.45 0.42 0.43 0.48 0.47 0.45 0.51 0.57 0.63
0.07 0.17 0.23 0.16 0.10 0.11 0.18 0.24 0.42 0.57 0.73 0.95 0.91 1.00 1.01 1.11 1.08 1.00 0.97 1.03 1.06 1.04 0.98 0.78 0.66 0.59 0.51 0.52 0.47 0.42 0.40 0.39 0.38 0.39 0.35 0.35 0.35 0.35 0.38 0.46 0.49 0.44 0.45 0.50 0.52 0.51 0.58 0.61 0.62
0.04 0.08 0.13 0.09 0.05 0.08 0.15 0.24 0.39 0.55 0.80 0.95 0.95 1.02 1.03 1.00 1.06 1.15 1.21 1.33 1.53 1.38 1.22 0.93 0.78 0.79 0.65 0.59 0.57 0.52 0.45 0.44 0.43 0.44 0.44 0.46 0.45 0.44 0.48 0.52 0.55 0.50 0.48 0.52 0.60 0.61 0.60 0.63 0.65
0.03 0.05 0.07 0.06 0.03 0.05 0.14 0.30 0.44 0.48 0.63 0.93 1.18 1.02 0.86 0.93 1.22 1.41 1.64 1.74 1.89 1.78 1.37 1.00 0.93 1.02 0.89 0.70 0.65 0.74 0.67 0.63 0.64 0.69 0.69 0.82 1.01 0.89 0.91 0.76 0.76 0.71 0.74 0.78 0.86 0.88 0.87 0.84 0.75
0.02 0.04 0.05 0.03 0.02 0.04 0.14 0.36 0.52 0.61 0.94 1.25 1.44 1.24 1.01 0.99 1.41 1.75 1.84 1.91 1.65 1.72 1.67 1.35 1.12 1.05 1.01 0.86 0.88 1.18 1.16 1.15 1.25 1.31 1.26 1.50 1.50 1.33 0.98 0.96 1.16 1.13 1.24 1.36 1.55 1.67 1.45 1.18 1.03
0.01 0.01 0.02 0.02 0.02 0.05 0.18 0.22 0.30 0.56 1.14 1.54 1.75 1.37 1.11 1.17 1.49 1.97 2.10 1.98 1.70 1.71 1.62 1.64 1.42 1.22 1.17 1.26 1.21 1.35 1.50 1.61 1.73 1.65 1.68 1.87 1.60 1.33 1.17 1.30 1.59 1.62 1.71 1.81 2.05 2.19 1.69 1.70 1.98
0.01 0.01 0.01 0.01 0.01 0.03 0.11 0.19 0.34 0.64 1.12 1.40 1.29 1.13 1.13 1.31 1.51 2.03 2.32 2.15 2.01 1.95 1.86 2.09 1.98 1.77 1.72 1.62 1.62 1.47 1.40 1.46 1.60 1.69 1.69 1.84 1.79 1.64 1.64 1.73 1.76 1.92 2.09 2.34 2.25 2.40 2.41 2.48 2.36
0.01 0.01 0.01 0.01 0.02 0.03 0.08 0.20 0.31 0.54 0.83 0.89 0.79 0.95 1.34 1.42 1.66 2.17 2.70 2.69 2.56 2.39 2.44 2.61 2.59 2.61 2.46 2.19 1.96 1.60 1.52 1.44 1.45 1.53 1.55 1.77 1.98 1.98 2.07 1.90 1.88 1.66 1.88 2.25 2.50 2.56 2.75 2.89 2.81
0.00 0.01 0.01 0.03 0.04 0.05 0.09 0.18 0.35 0.74 0.75 0.68 0.80 1.10 1.43 1.76 1.85 2.25 2.89 3.09 3.03 3.00 3.20 3.24 3.23 3.17 2.95 2.48 2.22 1.97 1.69 1.65 1.52 1.52 1.61 2.04 2.24 2.16 2.21 2.13 2.03 1.78 1.86 2.19 2.53 2.61 2.88 2.87 2.92
0.01 0.03 0.09 0.09 0.07 0.09 0.13 0.40 0.62 0.80 0.76 0.75 0.97 1.18 1.61 2.13 2.29 2.52 2.92 3.19 3.41 3.67 3.88 4.09 3.99 3.66 3.51 3.07 2.47 2.06 1.80 1.60 1.64 1.76 1.85 2.13 2.29 2.40 2.51 2.41 2.07 1.91 2.04 2.22 2.24 2.39 2.83 2.67 2.67
0.02 0.06 0.23 0.18 0.09 0.10 0.19 0.63 0.80 0.82 0.85 0.92 1.14 1.45 1.76 2.20 2.24 2.44 2.75 3.25 3.76 4.23 4.66 4.88 4.58 4.38 4.21 3.72 3.12 2.69 2.41 2.19 2.14 2.11 1.98 1.85 2.04 2.16 2.29 2.03 1.69 1.83 2.08 2.23 2.18 2.18 2.56 2.63 2.67
0.05 0.09 0.19 0.18 0.12 0.11 0.21 0.60 0.63 0.54 0.89 1.26 1.49 1.66 1.77 1.92 2.02 2.22 2.52 3.12 3.80 4.53 5.29 5.67 5.82 5.26 4.76 4.08 3.53 3.06 2.81 2.58 2.37 2.11 1.89 1.65 1.48 1.43 1.54 1.43 1.37 1.50 1.77 1.84 1.63 1.77 2.05 2.20 2.37
0.04 0.08 0.14 0.19 0.16 0.16 0.28 0.55 0.66 0.57 0.86 1.22 1.27 1.54 1.64 1.63 1.82 2.19 2.68 3.13 3.92 4.71 5.43 5.82 5.98 5.39 4.58 4.17 3.96 3.49 3.05 2.72 2.37 2.01 1.75 1.42 1.26 1.12 1.21 1.21 1.10 1.15 1.23 1.29 1.46 1.70 1.79 1.71 1.80
0.04 0.07 0.16 0.18 0.17 0.23 0.38 0.64 0.76 0.75 0.81 0.96 1.06 1.26 1.29 1.34 1.61 2.06 2.68 3.31 4.09 5.16 5.81 5.90 5.51 4.74 4.14 3.62 3.30 2.93 2.67 2.46 2.06 1.69 1.44 1.26 1.18 1.08 1.14 1.07 1.04 1.03 1.00 1.01 1.15 1.31 1.38 1.21 1.36
0.05 0.09 0.17 0.16 0.13 0.15 0.35 0.68 0.79 0.84 0.90 0.89 0.95 1.06 0.98 1.12 1.48 2.08 2.84 3.64 4.24 4.78 5.12 5.11 4.66 3.88 3.36 2.97 2.83 2.54 2.30 1.99 1.75 1.51 1.38 1.16 1.09 1.01 0.97 1.01 0.90 0.86 0.94 0.93 0.97 1.11 1.14 1.02 1.11
0.08 0.09 0.14 0.17 0.13 0.16 0.36 0.80 0.95 0.91 0.91 0.88 0.77 0.78 0.88 1.08 1.65 2.43 3.25 3.97 4.21 4.20 3.97 3.66 3.43 3.04 2.89 2.73 2.48 2.23 2.14 1.87 1.61 1.33 1.19 1.02 0.91 0.84 0.80 0.78 0.74 0.75 0.73 0.78 0.87 0.96 1.05 1.00 0.91
0.09 0.07 0.05 0.07 0.11 0.32 0.45 0.90 1.02 1.03 1.01 0.86 0.75 0.81 0.98 1.24 1.78 2.51 3.08 3.29 3.35 3.21 2.89 2.71 2.63 2.51 2.41 2.28 2.13 1.79 1.55 1.46 1.31 1.17 1.11 1.02 0.91 0.85 0.78 0.69 0.67 0.67 0.61 0.72 0.66 0.76 0.91 0.96 0.81
0.05 0.04 0.04 0.08 0.18 0.34 0.47 0.76 1.06 1.04 1.11 0.74 0.59 0.69 0.82 1.06 1.35 1.59 1.82 1.97 2.07 2.04 2.09 2.13 2.23 2.30 2.15 2.07 2.01 1.85 1.55 1.49 1.46 1.41 1.38 1.26 1.09 0.92 0.76 0.73 0.70 0.70 0.58 0.62 0.65 0.77 0.83 0.87 0.80
0.04 0.06 0.12 0.21 0.36 0.71 0.70 0.81 1.12 1.08 0.92 0.54 0.38 0.43 0.62 0.76 0.83 0.94 1.04 1.16 1.38 1.40 1.46 1.59 1.69 1.81 1.91 1.88 1.72 1.64 1.53 1.56 1.57 1.47 1.30 1.12 1.02 0.91 0.80 0.78 0.84 0.77 0.71 0.70 0.68 0.71 0.74 0.85 0.91
0.05 0.09 0.31 0.63 0.98 1.04 0.62 0.71 1.10 1.01 0.68 0.40 0.28 0.26 0.33 0.50 0.67 0.82 0.94 1.05 1.23 1.14 1.12 1.21 1.31 1.34 1.46 1.46 1.40 1.40 1.46 1.46 1.36 1.25 1.14 0.99 0.82 0.77 0.79 0.77 0.81 0.80 0.83 0.78 0.79 0.79 0.72 0.78 0.87
0.06 0.07 0.18 0.35 0.45 0.61 0.64 1.11 1.32 0.73 0.43 0.30 0.25 0.22 0.25 0.40 0.57 0.66 0.67 0.76 0.86 0.79 0.83 0.93 1.05 1.12 1.16 1.20 1.22 1.22 1.27 1.20 1.15 1.20 1.11 0.95 0.80 0.75 0.74 0.72 0.71 0.76 0.80 0.79 0.94 0.88 0.86 0.88 0.85
0.06 0.05 0.07 0.09 0.16 0.43 0.78 1.12 1.06 0.61 0.43 0.29 0.25 0.23 0.24 0.31 0.44 0.49 0.40 0.44 0.55 0.64 0.70 0.74 0.90 1.01 1.02 1.09 1.11 1.07 1.11 1.14 1.18 1.17 1.06 0.92 0.91 0.83 0.82 0.79 0.85 0.88 0.88 0.92 1.04 1.01 0.97 1.02 0.91
0.06 0.06 0.07 0.10 0.18 0.37 0.69 1.11 1.28 0.92 0.52 0.34 0.32 0.33 0.31 0.29 0.33 0.35 0.33 0.32 0.39 0.51 0.66 0.75 0.85 0.93 0.96 1.03 1.01 0.85 0.97 1.08 1.20 1.15 1.05 0.96 0.99 0.91 0.93 0.91 0.92 0.99 0.96 0.96 1.07 1.08 1.13 1.17 1.12
0.09 0.08 0.10 0.10 0.11 0.21 0.53 0.79 0.67 0.66 0.48 0.45 0.41 0.38 0.36 0.32 0.34 0.32 0.27 0.27 0.29 0.37 0.55 0.67 0.78 0.86 0.88 0.94 1.00 1.05 1.04 0.96 1.04 1.07 1.06 1.08 1.09 1.01 1.00 1.02 1.06 1.06 1.09 1.15 1.21 1.14 1.20 1.31 1.45
0.11 0.11 0.12 0.13 0.12 0.13 0.26 0.41 0.40 0.58 0.55 0.50 0.47 0.47 0.45 0.33 0.29 0.29 0.31 0.32 0.32 0.32 0.42 0.52 0.61 0.74 0.80 0.89 1.01 1.07 1.13 1.02 1.00 1.01 1.08 1.13 1.18 1.21 1.17 1.13 1.12 1.05 1.08 1.23 1.28 1.31 1.33 1.35 1.38